| time (UTC) | temp F | wind direction | speed MPH | gust MPH | rain 1hr in | rain 24hr in | rain mn in | humidity % | barometer mb |
| 20260506211204 | 72 | 249 | 3.0 | 3.0 | 0.00 | 0.00 | 0.00 | 20 | 1010.7 |
| 20260506210701 | 69 | 315 | 2.0 | 3.0 | 0.00 | 0.00 | 0.00 | 22 | 1010.7 |
| 20260506210158 | 69 | 0 | 3.0 | 3.0 | 0.00 | 0.00 | 0.00 | 21 | 1010.7 |
| 20260506205655 | 69 | 251 | 1.0 | 1.0 | 0.00 | 0.00 | 0.00 | 21 | 1010.9 |
| 20260506205150 | 69 | 309 | 4.0 | 6.0 | 0.00 | 0.00 | 0.00 | 21 | 1010.9 |
| 20260506204648 | 71 | 226 | 1.0 | 2.0 | 0.00 | 0.00 | 0.00 | 21 | 1010.8 |
| 20260506204144 | 70 | 341 | 3.0 | 3.0 | 0.00 | 0.00 | 0.00 | 21 | 1011.0 |
| 20260506203643 | 70 | 314 | 3.0 | 3.0 | 0.00 | 0.00 | 0.00 | 22 | 1011.0 |
| 20260506203139 | 69 | 282 | 3.0 | 5.0 | 0.00 | 0.00 | 0.00 | 22 | 1011.0 |
| 20260506202638 | 69 | 322 | 4.0 | 7.0 | 0.00 | 0.00 | 0.00 | 22 | 1011.1 |
| 20260506202133 | 69 | 248 | 4.0 | 5.0 | 0.00 | 0.00 | 0.00 | 21 | 1011.3 |
| 20260506201630 | 68 | 333 | 3.0 | 3.0 | 0.00 | 0.00 | 0.00 | 22 | 1011.3 |
| 20260506201127 | 68 | 12 | 5.0 | 7.0 | 0.00 | 0.00 | 0.00 | 23 | 1011.5 |
| 20260506200623 | 69 | 286 | 2.0 | 3.0 | 0.00 | 0.00 | 0.00 | 22 | 1011.5 |
| 20260506200120 | 68 | 1 | 4.0 | 6.0 | 0.00 | 0.00 | 0.00 | 22 | 1011.7 |
| 20260506195617 | 68 | 329 | 3.0 | 5.0 | 0.00 | 0.00 | 0.00 | 23 | 1011.9 |
| 20260506195113 | 66 | 3 | 4.0 | 5.0 | 0.00 | 0.00 | 0.00 | 24 | 1011.7 |
| 20260506194611 | 67 | 309 | 3.0 | 3.0 | 0.00 | 0.00 | 0.00 | 22 | 1011.9 |
| 20260506194107 | 66 | 288 | 5.0 | 6.0 | 0.00 | 0.00 | 0.00 | 24 | 1011.9 |
| 20260506193605 | 66 | 281 | 5.0 | 7.0 | 0.00 | 0.00 | 0.00 | 24 | 1012.0 |
| 20260506193102 | 64 | 239 | 5.0 | 8.0 | 0.00 | 0.00 | 0.00 | 26 | 1011.9 |
| 20260506192559 | 63 | 252 | 5.0 | 7.0 | 0.00 | 0.00 | 0.00 | 26 | 1012.2 |
| 20260506192055 | 66 | 224 | 12.0 | 14.0 | 0.00 | 0.00 | 0.00 | 25 | 1012.2 |
| 20260506191551 | 65 | 246 | 5.0 | 6.0 | 0.00 | 0.00 | 0.00 | 25 | 1012.2 |
| 20260506191047 | 65 | 274 | 2.0 | 3.0 | 0.00 | 0.00 | 0.00 | 24 | 1012.5 |
| 20260506190545 | 66 | 279 | 3.0 | 3.0 | 0.00 | 0.00 | 0.00 | 24 | 1012.6 |
| 20260506190042 | 64 | 1 | 2.0 | 3.0 | 0.00 | 0.00 | 0.00 | 26 | 1012.7 |
| 20260506185539 | 63 | 347 | 2.0 | 2.0 | 0.00 | 0.00 | 0.00 | 25 | 1012.8 |
| 20260506185035 | 62 | 194 | 4.0 | 6.0 | 0.00 | 0.00 | 0.00 | 26 | 1012.9 |
| 20260506184533 | 62 | 189 | 3.0 | 3.0 | 0.00 | 0.00 | 0.00 | 25 | 1012.9 |
| 20260506184030 | 63 | 324 | 5.0 | 6.0 | 0.00 | 0.00 | 0.00 | 24 | 1013.3 |
| 20260506183525 | 63 | 303 | 4.0 | 7.0 | 0.00 | 0.00 | 0.00 | 25 | 1013.1 |
| 20260506183023 | 62 | 255 | 5.0 | 6.0 | 0.00 | 0.00 | 0.00 | 25 | 1013.2 |
| 20260506182520 | 62 | 253 | 2.0 | 3.0 | 0.00 | 0.00 | 0.00 | 27 | 1013.2 |
| 20260506182017 | 60 | 225 | 1.0 | 1.0 | 0.00 | 0.00 | 0.00 | 26 | 1013.4 |
| 20260506181515 | 60 | 247 | 5.0 | 6.0 | 0.00 | 0.00 | 0.00 | 26 | 1013.3 |
| 20260506181012 | 59 | 235 | 4.0 | 6.0 | 0.00 | 0.00 | 0.00 | 27 | 1013.7 |
| 20260506180508 | 58 | 199 | 8.0 | 8.0 | 0.00 | 0.00 | 0.00 | 27 | 1013.8 |
| 20260506180006 | 59 | 225 | 4.0 | 5.0 | 0.00 | 0.00 | 0.00 | 28 | 1013.9 |
| 20260506175501 | 59 | 227 | 3.0 | 5.0 | 0.00 | 0.00 | 0.00 | 26 | 1014.1 |
| 20260506174958 | 57 | 252 | 2.0 | 5.0 | 0.00 | 0.00 | 0.00 | 27 | 1014.0 |
| 20260506174456 | 58 | 234 | 8.0 | 9.0 | 0.00 | 0.00 | 0.00 | 28 | 1014.1 |
| 20260506173952 | 58 | 230 | 5.0 | 6.0 | 0.00 | 0.00 | 0.00 | 25 | 1014.4 |
| 20260506173450 | 57 | 140 | 3.0 | 6.0 | 0.00 | 0.00 | 0.00 | 25 | 1014.3 |
| 20260506172946 | 57 | 196 | 11.0 | 14.0 | 0.00 | 0.00 | 0.00 | 25 | 1014.4 |
| 20260506172444 | 56 | 204 | 7.0 | 9.0 | 0.00 | 0.00 | 0.00 | 24 | 1014.6 |
| 20260506171940 | 56 | 233 | 5.0 | 6.0 | 0.00 | 0.00 | 0.00 | 23 | 1014.5 |
| 20260506171438 | 56 | 212 | 7.0 | 8.0 | 0.00 | 0.00 | 0.00 | 24 | 1014.8 |
| 20260506170935 | 56 | 268 | 2.0 | 3.0 | 0.00 | 0.00 | 0.00 | 24 | 1015.0 |
| 20260506170431 | 55 | 171 | 6.0 | 7.0 | 0.00 | 0.00 | 0.00 | 24 | 1015.1 |
| 20260506165924 | 55 | 220 | 3.0 | 5.0 | 0.00 | 0.00 | 0.00 | 24 | 1015.2 |
| 20260506165423 | 55 | 245 | 5.0 | 6.0 | 0.00 | 0.00 | 0.00 | 25 | 1015.3 |
| 20260506164918 | 54 | 231 | 4.0 | 5.0 | 0.00 | 0.00 | 0.00 | 25 | 1015.2 |
| 20260506164415 | 53 | 181 | 3.0 | 5.0 | 0.00 | 0.00 | 0.00 | 30 | 1015.3 |
| 20260506163914 | 52 | 225 | 5.0 | 7.0 | 0.00 | 0.00 | 0.00 | 31 | 1015.4 |
| 20260506163407 | 52 | 205 | 5.0 | 6.0 | 0.00 | 0.00 | 0.00 | 30 | 1015.5 |
| 20260506162902 | 51 | 201 | 7.0 | 8.0 | 0.00 | 0.00 | 0.00 | 32 | 1015.7 |
| 20260506162400 | 51 | 220 | 6.0 | 9.0 | 0.00 | 0.00 | 0.00 | 33 | 1015.6 |
| 20260506161852 | 50 | 218 | 8.0 | 9.0 | 0.00 | 0.00 | 0.00 | 36 | 1015.9 |
| 20260506161349 | 50 | 197 | 6.0 | 7.0 | 0.00 | 0.00 | 0.00 | 36 | 1015.6 |
| 20260506160842 | 50 | 229 | 10.0 | 11.0 | 0.00 | 0.00 | 0.00 | 37 | 1015.9 |
| 20260506160338 | 49 | 206 | 8.0 | 9.0 | 0.00 | 0.00 | 0.00 | 40 | 1016.2 |
| 20260506155837 | 49 | 194 | 6.0 | 7.0 | 0.00 | 0.00 | 0.00 | 41 | 1016.1 |
| 20260506155333 | 48 | 204 | 8.0 | 10.0 | 0.00 | 0.00 | 0.00 | 42 | 1016.1 |
| 20260506153445 | 46 | 187 | 9.0 | 10.0 | 0.00 | 0.00 | 0.00 | 46 | 1016.5 |
| 20260506152943 | 46 | 217 | 8.0 | 8.0 | 0.00 | 0.00 | 0.00 | 47 | 1016.7 |
| 20260506152439 | 46 | 196 | 9.0 | 9.0 | 0.00 | 0.00 | 0.00 | 47 | 1016.8 |
| 20260506151938 | 45 | 226 | 12.0 | 14.0 | 0.00 | 0.00 | 0.00 | 49 | 1016.7 |
| 20260506151435 | 44 | 212 | 12.0 | 14.0 | 0.00 | 0.00 | 0.00 | 50 | 1016.7 |
| 20260506150932 | 44 | 219 | 12.0 | 14.0 | 0.00 | 0.00 | 0.00 | 51 | 1016.8 |
| 20260506150428 | 43 | 226 | 11.0 | 11.0 | 0.00 | 0.00 | 0.00 | 53 | 1016.8 |
| 20260506145925 | 42 | 213 | 7.0 | 9.0 | 0.00 | 0.00 | 0.00 | 54 | 1016.9 |
| 20260506145421 | 41 | 222 | 7.0 | 8.0 | 0.00 | 0.00 | 0.00 | 56 | 1017.2 |
| 20260506144919 | 41 | 196 | 9.0 | 10.0 | 0.00 | 0.00 | 0.00 | 57 | 1017.3 |
| 20260506144415 | 40 | 222 | 7.0 | 8.0 | 0.00 | 0.00 | 0.00 | 59 | 1017.3 |
| 20260506143914 | 40 | 205 | 7.0 | 8.0 | 0.00 | 0.00 | 0.00 | 59 | 1017.4 |
| 20260506143410 | 39 | 212 | 6.0 | 7.0 | 0.00 | 0.00 | 0.00 | 60 | 1017.5 |
| 20260506142909 | 39 | 208 | 6.0 | 7.0 | 0.00 | 0.00 | 0.00 | 61 | 1017.4 |
| 20260506142407 | 38 | 205 | 7.0 | 7.0 | 0.00 | 0.00 | 0.00 | 61 | 1017.5 |
| 20260506141904 | 37 | 222 | 6.0 | 7.0 | 0.00 | 0.00 | 0.00 | 62 | 1017.7 |
| 20260506141402 | 36 | 198 | 5.0 | 6.0 | 0.00 | 0.00 | 0.00 | 63 | 1017.7 |
| 20260506140900 | 35 | 192 | 3.0 | 3.0 | 0.00 | 0.00 | 0.00 | 65 | 1017.8 |
| 20260506140356 | 34 | 185 | 3.0 | 5.0 | 0.00 | 0.00 | 0.00 | 66 | 1017.8 |
| 20260506135854 | 32 | 179 | 2.0 | 2.0 | 0.00 | 0.00 | 0.00 | 68 | 1017.8 |
| 20260506135351 | 31 | 189 | 3.0 | 3.0 | 0.00 | 0.00 | 0.00 | 69 | 1017.7 |
| 20260506134847 | 30 | 173 | 3.0 | 3.0 | 0.00 | 0.00 | 0.00 | 69 | 1017.7 |
| 20260506134343 | 29 | 167 | 1.0 | 2.0 | 0.00 | 0.00 | 0.00 | 70 | 1017.9 |
| 20260506133840 | 27 | 170 | 2.0 | 2.0 | 0.00 | 0.00 | 0.00 | 72 | 1017.8 |
| 20260506133337 | 27 | 171 | 1.0 | 1.0 | 0.00 | 0.00 | 0.00 | 72 | 1017.7 |
| 20260506132833 | 26 | 171 | 1.0 | 2.0 | 0.00 | 0.00 | 0.00 | 73 | 1018.0 |
| 20260506132331 | 25 | 171 | 0.0 | 0.0 | 0.00 | 0.00 | 0.00 | 74 | 1017.9 |
| 20260506131829 | 24 | 170 | 1.0 | 1.0 | 0.00 | 0.00 | 0.00 | 75 | 1018.0 |
| 20260506131325 | 24 | 169 | 2.0 | 2.0 | 0.00 | 0.00 | 0.00 | 76 | 1018.0 |
| 20260506130822 | 23 | 165 | 3.0 | 3.0 | 0.00 | 0.00 | 0.00 | 77 | 1017.8 |
| 20260506130318 | 23 | 165 | 2.0 | 2.0 | 0.00 | 0.00 | 0.00 | 77 | 1018.0 |
| 20260506125817 | 22 | 165 | 1.0 | 1.0 | 0.00 | 0.00 | 0.00 | 77 | 1018.2 |
| 20260506125315 | 22 | 164 | 4.0 | 5.0 | 0.00 | 0.00 | 0.00 | 77 | 1018.3 |
| 20260506124813 | 23 | 165 | 2.0 | 2.0 | 0.00 | 0.00 | 0.00 | 77 | 1018.3 |
| 20260506124309 | 23 | 160 | 0.0 | 0.0 | 0.00 | 0.00 | 0.00 | 74 | 1018.3 |
| 20260506123807 | 22 | 159 | 0.0 | 0.0 | 0.00 | 0.00 | 0.00 | 77 | 1018.2 |
| 20260506123306 | 21 | 159 | 0.0 | 0.0 | 0.00 | 0.00 | 0.00 | 79 | 1018.2 |
| 20260506122802 | 21 | 159 | 0.0 | 0.0 | 0.00 | 0.00 | 0.00 | 77 | 1018.2 |
| 20260506122259 | 21 | 159 | 0.0 | 0.0 | 0.00 | 0.00 | 0.00 | 78 | 1018.2 |
| 20260506121757 | 20 | 159 | 0.0 | 0.0 | 0.00 | 0.00 | 0.00 | 79 | 1018.3 |
| 20260506121254 | 20 | 159 | 1.0 | 1.0 | 0.00 | 0.00 | 0.00 | 80 | 1018.3 |
| 20260506120751 | 20 | 159 | 1.0 | 1.0 | 0.00 | 0.00 | 0.00 | 80 | 1018.3 |
| 20260506120249 | 20 | 159 | 1.0 | 1.0 | 0.00 | 0.00 | 0.00 | 78 | 1018.3 |
| 20260506115746 | 21 | 158 | 2.0 | 2.0 | 0.00 | 0.00 | 0.00 | 78 | 1018.4 |
| 20260506115244 | 21 | 156 | 0.0 | 0.0 | 0.00 | 0.00 | 0.00 | 78 | 1018.5 |
| 20260506114742 | 20 | 156 | 1.0 | 1.0 | 0.00 | 0.00 | 0.00 | 77 | 1018.6 |
| 20260506114239 | 21 | 156 | 1.0 | 1.0 | 0.00 | 0.00 | 0.00 | 76 | 1018.4 |
| 20260506113738 | 21 | 156 | 1.0 | 2.0 | 0.00 | 0.00 | 0.00 | 76 | 1018.5 |
| 20260506113235 | 22 | 155 | 1.0 | 1.0 | 0.00 | 0.00 | 0.00 | 77 | 1018.7 |
| 20260506112731 | 22 | 155 | 1.0 | 1.0 | 0.00 | 0.00 | 0.00 | 76 | 1018.6 |
| 20260506112228 | 23 | 155 | 2.0 | 2.0 | 0.00 | 0.00 | 0.00 | 77 | 1018.4 |
| 20260506111726 | 23 | 155 | 1.0 | 1.0 | 0.00 | 0.00 | 0.00 | 75 | 1018.8 |
| 20260506111224 | 24 | 155 | 1.0 | 1.0 | 0.00 | 0.00 | 0.00 | 76 | 1018.8 |
| 20260506110721 | 24 | 155 | 2.0 | 2.0 | 0.00 | 0.00 | 0.00 | 76 | 1019.0 |
| 20260506110218 | 24 | 153 | 3.0 | 3.0 | 0.00 | 0.00 | 0.00 | 75 | 1019.0 |
| 20260506105715 | 24 | 153 | 1.0 | 1.0 | 0.00 | 0.00 | 0.00 | 74 | 1018.8 |
| 20260506105212 | 24 | 151 | 2.0 | 2.0 | 0.00 | 0.00 | 0.00 | 74 | 1018.9 |
| 20260506104710 | 23 | 151 | 0.0 | 0.0 | 0.00 | 0.00 | 0.00 | 75 | 1019.0 |
| 20260506104207 | 24 | 151 | 0.0 | 0.0 | 0.00 | 0.00 | 0.00 | 72 | 1019.1 |
| 20260506103704 | 23 | 151 | 1.0 | 1.0 | 0.00 | 0.00 | 0.00 | 73 | 1018.9 |
| 20260506103201 | 23 | 151 | 0.0 | 1.0 | 0.00 | 0.00 | 0.00 | 73 | 1019.2 |
| 20260506102659 | 23 | 151 | 0.0 | 0.0 | 0.00 | 0.00 | 0.00 | 70 | 1019.2 |
| 20260506102157 | 23 | 151 | 2.0 | 2.0 | 0.00 | 0.00 | 0.00 | 69 | 1019.1 |
| 20260506101653 | 24 | 151 | 2.0 | 2.0 | 0.00 | 0.00 | 0.00 | 66 | 1019.1 |
| 20260506101150 | 24 | 151 | 2.0 | 2.0 | 0.00 | 0.00 | 0.00 | 66 | 1019.2 |
| 20260506100648 | 23 | 152 | 1.0 | 2.0 | 0.00 | 0.00 | 0.00 | 67 | 1019.4 |
| 20260506100146 | 23 | 151 | 0.0 | 0.0 | 0.00 | 0.00 | 0.00 | 66 | 1019.4 |
| 20260506095644 | 22 | 151 | 0.0 | 0.0 | 0.00 | 0.00 | 0.00 | 64 | 1019.5 |
| 20260506095140 | 22 | 151 | 0.0 | 0.0 | 0.00 | 0.00 | 0.00 | 65 | 1019.4 |
| 20260506094638 | 22 | 151 | 0.0 | 0.0 | 0.00 | 0.00 | 0.00 | 63 | 1019.4 |
| 20260506094136 | 22 | 151 | 0.0 | 0.0 | 0.00 | 0.00 | 0.00 | 64 | 1019.6 |
| 20260506093634 | 22 | 150 | 4.0 | 5.0 | 0.00 | 0.00 | 0.00 | 63 | 1019.6 |
| 20260506093131 | 22 | 144 | 0.0 | 0.0 | 0.00 | 0.00 | 0.00 | 62 | 1019.7 |
| 20260506092629 | 22 | 144 | 1.0 | 2.0 | 0.00 | 0.00 | 0.00 | 62 | 1019.8 |
| 20260506092125 | 22 | 143 | 2.0 | 2.0 | 0.00 | 0.00 | 0.00 | 62 | 1019.8 |
| 20260506091624 | 22 | 143 | 2.0 | 2.0 | 0.00 | 0.00 | 0.00 | 62 | 1019.9 |
| 20260506091121 | 22 | 143 | 2.0 | 2.0 | 0.00 | 0.00 | 0.00 | 61 | 1019.7 |
| 20260506090619 | 22 | 142 | 2.0 | 2.0 | 0.00 | 0.00 | 0.00 | 64 | 1019.8 |
| 20260506090115 | 22 | 141 | 1.0 | 1.0 | 0.00 | 0.00 | 0.00 | 62 | 1019.7 |
| 20260506085612 | 23 | 138 | 2.0 | 2.0 | 0.00 | 0.00 | 0.00 | 62 | 1019.8 |
| 20260506085108 | 22 | 63 | 1.0 | 1.0 | 0.00 | 0.00 | 0.00 | 62 | 1019.8 |
| 20260506084605 | 22 | 63 | 0.0 | 0.0 | 0.00 | 0.00 | 0.00 | 61 | 1020.0 |
| 20260506084101 | 22 | 63 | 1.0 | 1.0 | 0.00 | 0.00 | 0.00 | 61 | 1019.9 |
| 20260506083559 | 22 | 63 | 0.0 | 0.0 | 0.00 | 0.00 | 0.00 | 61 | 1020.0 |
| 20260506083056 | 23 | 62 | 0.0 | 0.0 | 0.00 | 0.00 | 0.00 | 60 | 1020.1 |
| 20260506082552 | 23 | 62 | 0.0 | 0.0 | 0.00 | 0.00 | 0.00 | 60 | 1020.0 |
| 20260506082048 | 23 | 62 | 0.0 | 0.0 | 0.00 | 0.00 | 0.00 | 60 | 1020.1 |
| 20260506081546 | 23 | 62 | 0.0 | 0.0 | 0.00 | 0.00 | 0.00 | 60 | 1020.2 |
| 20260506081043 | 24 | 62 | 0.0 | 0.0 | 0.00 | 0.00 | 0.00 | 59 | 1020.3 |
| 20260506080541 | 24 | 62 | 0.0 | 0.0 | 0.00 | 0.00 | 0.00 | 59 | 1020.3 |
| 20260506073525 | 26 | 62 | 0.0 | 0.0 | 0.00 | 0.00 | 0.00 | 57 | 1020.6 |
| 20260506073021 | 25 | 62 | 2.0 | 2.0 | 0.00 | 0.00 | 0.00 | 58 | 1020.4 |
| 20260506072519 | 25 | 61 | 0.0 | 0.0 | 0.00 | 0.00 | 0.00 | 58 | 1020.4 |
| 20260506072016 | 25 | 61 | 0.0 | 0.0 | 0.00 | 0.00 | 0.00 | 58 | 1020.6 |
| 20260506071514 | 26 | 61 | 0.0 | 0.0 | 0.00 | 0.00 | 0.00 | 57 | 1020.6 |
| 20260506071011 | 28 | 61 | 0.0 | 0.0 | 0.00 | 0.00 | 0.00 | 55 | 1020.7 |
| 20260506070509 | 29 | 62 | 1.0 | 1.0 | 0.00 | 0.00 | 0.00 | 54 | 1020.9 |
| 20260506062446 | 29 | 62 | 0.0 | 0.0 | 0.00 | 0.00 | 0.00 | 63 | 1020.7 |
| 20260506061942 | 30 | 61 | 0.0 | 0.0 | 0.00 | 0.00 | 0.00 | 69 | 1020.7 |
| 20260506061438 | 30 | 61 | 0.0 | 0.0 | 0.00 | 0.00 | 0.00 | 67 | 1020.7 |
| 20260506060936 | 30 | 61 | 0.0 | 0.0 | 0.00 | 0.00 | 0.00 | 63 | 1020.6 |
| 20260506060435 | 30 | 61 | 0.0 | 0.0 | 0.00 | 0.00 | 0.00 | 62 | 1020.6 |
| 20260506051406 | 32 | 61 | 0.0 | 0.0 | 0.00 | 0.00 | 0.00 | 58 | 1020.7 |
| 20260506050903 | 33 | 61 | 0.0 | 0.0 | 0.00 | 0.00 | 0.00 | 57 | 1020.9 |
| 20260506050401 | 33 | 61 | 0.0 | 0.0 | 0.00 | 0.00 | 0.00 | 57 | 1020.8 |
| 20260506044851 | 34 | 61 | 0.0 | 0.0 | 0.00 | 0.00 | 0.00 | 54 | 1020.6 |
| 20260506044349 | 35 | 50 | 1.0 | 1.0 | 0.00 | 0.00 | 0.00 | 52 | 1020.7 |
| 20260506043846 | 35 | 28 | 5.0 | 5.0 | 0.00 | 0.00 | 0.00 | 52 | 1020.7 |
| 20260506043343 | 34 | 31 | 3.0 | 3.0 | 0.00 | 0.00 | 0.00 | 53 | 1020.8 |
| 20260506042841 | 35 | 32 | 3.0 | 3.0 | 0.00 | 0.00 | 0.00 | 52 | 1020.8 |
| 20260506042340 | 35 | 37 | 3.0 | 3.0 | 0.00 | 0.00 | 0.00 | 50 | 1020.7 |
| 20260506041838 | 36 | 33 | 3.0 | 3.0 | 0.00 | 0.00 | 0.00 | 50 | 1020.6 |
| 20260506041335 | 36 | 42 | 3.0 | 3.0 | 0.00 | 0.00 | 0.00 | 49 | 1020.8 |
| 20260506040832 | 37 | 34 | 2.0 | 2.0 | 0.00 | 0.00 | 0.00 | 49 | 1020.7 |
| 20260506040330 | 37 | 36 | 3.0 | 3.0 | 0.00 | 0.00 | 0.00 | 48 | 1020.9 |
| 20260506035826 | 38 | 28 | 3.0 | 5.0 | 0.00 | 0.00 | 0.00 | 47 | 1020.8 |
| 20260506035323 | 38 | 27 | 5.0 | 6.0 | 0.00 | 0.00 | 0.00 | 46 | 1020.8 |
| 20260506034820 | 38 | 35 | 5.0 | 6.0 | 0.00 | 0.00 | 0.00 | 47 | 1020.6 |
| 20260506034317 | 38 | 33 | 4.0 | 5.0 | 0.00 | 0.00 | 0.00 | 46 | 1020.8 |
| 20260506033814 | 39 | 31 | 4.0 | 6.0 | 0.00 | 0.00 | 0.00 | 46 | 1020.8 |
| 20260506033311 | 39 | 25 | 4.0 | 5.0 | 0.00 | 0.00 | 0.00 | 46 | 1020.9 |
| 20260506032808 | 39 | 17 | 5.0 | 6.0 | 0.00 | 0.00 | 0.00 | 46 | 1020.9 |
| 20260506032306 | 40 | 28 | 5.0 | 6.0 | 0.00 | 0.00 | 0.00 | 44 | 1020.8 |
| 20260506031802 | 40 | 22 | 5.0 | 5.0 | 0.00 | 0.00 | 0.00 | 44 | 1020.7 |
| 20260506031259 | 40 | 20 | 3.0 | 3.0 | 0.00 | 0.00 | 0.00 | 43 | 1020.6 |
| 20260506030757 | 41 | 22 | 4.0 | 5.0 | 0.00 | 0.00 | 0.00 | 42 | 1020.7 |
| 20260506030254 | 41 | 31 | 5.0 | 5.0 | 0.00 | 0.00 | 0.00 | 41 | 1020.7 |
| 20260506025751 | 42 | 22 | 5.0 | 6.0 | 0.00 | 0.00 | 0.00 | 41 | 1020.4 |
| 20260506025247 | 42 | 22 | 4.0 | 6.0 | 0.00 | 0.00 | 0.00 | 40 | 1020.4 |
| 20260506024745 | 43 | 24 | 5.0 | 6.0 | 0.00 | 0.00 | 0.00 | 39 | 1020.4 |
| 20260506024241 | 43 | 29 | 5.0 | 6.0 | 0.00 | 0.00 | 0.00 | 38 | 1020.4 |
| 20260506023737 | 44 | 21 | 5.0 | 6.0 | 0.00 | 0.00 | 0.00 | 37 | 1020.4 |
| 20260506023235 | 45 | 27 | 6.0 | 7.0 | 0.00 | 0.00 | 0.00 | 36 | 1020.2 |
| 20260506022731 | 45 | 28 | 4.0 | 5.0 | 0.00 | 0.00 | 0.00 | 37 | 1020.4 |
| 20260506022229 | 46 | 19 | 5.0 | 6.0 | 0.00 | 0.00 | 0.00 | 36 | 1020.4 |
| 20260506021727 | 46 | 15 | 8.0 | 9.0 | 0.00 | 0.00 | 0.00 | 35 | 1020.2 |
| 20260506021224 | 46 | 30 | 7.0 | 8.0 | 0.00 | 0.00 | 0.00 | 35 | 1020.4 |
| 20260506020720 | 46 | 28 | 6.0 | 8.0 | 0.00 | 0.00 | 0.00 | 33 | 1020.2 |
| 20260506020218 | 47 | 28 | 7.0 | 9.0 | 0.00 | 0.00 | 0.00 | 33 | 1020.2 |
| 20260506015716 | 47 | 36 | 10.0 | 11.0 | 0.00 | 0.00 | 0.00 | 33 | 1020.2 |
| 20260506015213 | 47 | 23 | 5.0 | 7.0 | 0.00 | 0.00 | 0.00 | 32 | 1020.1 |
| 20260506014710 | 48 | 4 | 7.0 | 8.0 | 0.00 | 0.00 | 0.00 | 31 | 1020.1 |
| 20260506014206 | 48 | 13 | 7.0 | 10.0 | 0.00 | 0.00 | 0.00 | 30 | 1020.2 |
| 20260506013704 | 48 | 9 | 9.0 | 11.0 | 0.00 | 0.00 | 0.00 | 31 | 1020.1 |
| 20260506013201 | 49 | 1 | 9.0 | 10.0 | 0.00 | 0.00 | 0.00 | 31 | 1020.2 |
| 20260506012657 | 49 | 9 | 7.0 | 9.0 | 0.00 | 0.00 | 0.00 | 30 | 1020.3 |
| 20260506012154 | 49 | 8 | 10.0 | 13.0 | 0.00 | 0.00 | 0.00 | 30 | 1020.2 |
| 20260506011651 | 49 | 11 | 11.0 | 14.0 | 0.00 | 0.00 | 0.00 | 30 | 1020.1 |
| 20260506011147 | 49 | 40 | 6.0 | 8.0 | 0.00 | 0.00 | 0.00 | 30 | 1020.0 |
| 20260506010646 | 50 | 13 | 8.0 | 9.0 | 0.00 | 0.00 | 0.00 | 29 | 1020.1 |
| 20260506010143 | 50 | 18 | 9.0 | 11.0 | 0.00 | 0.00 | 0.00 | 29 | 1020.0 |
| 20260506005639 | 49 | 21 | 12.0 | 14.0 | 0.00 | 0.00 | 0.00 | 29 | 1020.0 |
| 20260506005136 | 50 | 14 | 7.0 | 7.0 | 0.00 | 0.00 | 0.00 | 30 | 1019.9 |
| 20260506004632 | 50 | 356 | 9.0 | 14.0 | 0.00 | 0.00 | 0.00 | 29 | 1020.2 |
| 20260506004129 | 50 | 16 | 7.0 | 10.0 | 0.00 | 0.00 | 0.00 | 30 | 1020.0 |
| 20260506003620 | 51 | 23 | 7.0 | 9.0 | 0.00 | 0.00 | 0.00 | 29 | 1020.1 |
| 20260506003117 | 51 | 9 | 10.0 | 11.0 | 0.00 | 0.00 | 0.00 | 28 | 1019.9 |
| 20260506002613 | 51 | 9 | 9.0 | 11.0 | 0.00 | 0.00 | 0.00 | 29 | 1020.0 |
| 20260506002109 | 50 | 18 | 12.0 | 14.0 | 0.00 | 0.00 | 0.00 | 29 | 1020.0 |
| 20260506001605 | 51 | 14 | 8.0 | 9.0 | 0.00 | 0.00 | 0.00 | 29 | 1019.9 |
| 20260506001102 | 50 | 28 | 15.0 | 16.0 | 0.00 | 0.00 | 0.00 | 30 | 1020.1 |
| 20260506000600 | 51 | 13 | 11.0 | 15.0 | 0.00 | 0.00 | 0.00 | 28 | 1020.0 |
| 20260506000057 | 52 | 303 | 6.0 | 8.0 | 0.00 | 0.00 | 0.00 | 28 | 1019.9 |
| 20260505235555 | 52 | 6 | 11.0 | 14.0 | 0.00 | 0.00 | 0.00 | 26 | 1020.1 |
| 20260505235052 | 51 | 6 | 5.0 | 6.0 | 0.00 | 0.00 | 0.00 | 28 | 1020.2 |
| 20260505234549 | 51 | 10 | 11.0 | 14.0 | 0.00 | 0.00 | 0.00 | 27 | 1020.1 |
| 20260505234045 | 52 | 13 | 9.0 | 10.0 | 0.00 | 0.00 | 0.00 | 27 | 1020.1 |
| 20260505233543 | 52 | 359 | 8.0 | 9.0 | 0.00 | 0.00 | 0.00 | 27 | 1020.0 |
| 20260505233040 | 51 | 14 | 12.0 | 14.0 | 0.00 | 0.00 | 0.00 | 28 | 1020.0 |
| 20260505232538 | 51 | 15 | 6.0 | 7.0 | 0.00 | 0.00 | 0.00 | 28 | 1019.9 |
| 20260505232035 | 52 | 14 | 11.0 | 16.0 | 0.00 | 0.00 | 0.00 | 28 | 1020.0 |
| 20260505231532 | 53 | 8 | 13.0 | 16.0 | 0.00 | 0.00 | 0.00 | 27 | 1019.8 |
| 20260505231031 | 52 | 313 | 5.0 | 7.0 | 0.00 | 0.00 | 0.00 | 28 | 1019.9 |
| 20260505230528 | 52 | 351 | 6.0 | 8.0 | 0.00 | 0.00 | 0.00 | 28 | 1019.9 |
| 20260505230024 | 52 | 2 | 9.0 | 11.0 | 0.00 | 0.00 | 0.00 | 27 | 1019.8 |
| 20260505225521 | 52 | 5 | 12.0 | 14.0 | 0.00 | 0.00 | 0.00 | 27 | 1019.8 |
| 20260505225017 | 52 | 1 | 5.0 | 7.0 | 0.00 | 0.00 | 0.00 | 28 | 1019.8 |
| 20260505224514 | 52 | 340 | 7.0 | 8.0 | 0.00 | 0.00 | 0.00 | 26 | 1019.9 |
| 20260505224011 | 51 | 40 | 11.0 | 15.0 | 0.00 | 0.00 | 0.00 | 29 | 1019.8 |
| 20260505223508 | 50 | 26 | 8.0 | 8.0 | 0.00 | 0.00 | 0.00 | 29 | 1020.1 |
| 20260505223004 | 51 | 14 | 7.0 | 8.0 | 0.00 | 0.00 | 0.00 | 29 | 1019.8 |
| 20260505222501 | 51 | 10 | 5.0 | 6.0 | 0.00 | 0.00 | 0.00 | 29 | 1020.0 |
| 20260505221956 | 51 | 357 | 11.0 | 13.0 | 0.00 | 0.00 | 0.00 | 29 | 1020.0 |
| 20260505221454 | 52 | 15 | 7.0 | 10.0 | 0.00 | 0.00 | 0.00 | 29 | 1020.0 |
| 20260505220951 | 51 | 11 | 9.0 | 10.0 | 0.00 | 0.00 | 0.00 | 29 | 1019.9 |
| 20260505220448 | 52 | 37 | 13.0 | 17.0 | 0.00 | 0.00 | 0.00 | 29 | 1019.9 |
| 20260505215945 | 52 | 9 | 9.0 | 11.0 | 0.00 | 0.00 | 0.00 | 29 | 1020.0 |
| 20260505215444 | 52 | 353 | 10.0 | 13.0 | 0.00 | 0.00 | 0.00 | 28 | 1020.0 |
| 20260505214941 | 50 | 343 | 8.0 | 10.0 | 0.00 | 0.00 | 0.00 | 28 | 1020.0 |
| 20260505214438 | 52 | 15 | 9.0 | 11.0 | 0.00 | 0.00 | 0.00 | 28 | 1020.0 |
| 20260505213936 | 53 | 354 | 6.0 | 8.0 | 0.00 | 0.00 | 0.00 | 29 | 1020.1 |
| 20260505213433 | 51 | 335 | 6.0 | 8.0 | 0.00 | 0.00 | 0.00 | 29 | 1020.0 |
| 20260505212929 | 52 | 17 | 9.0 | 10.0 | 0.00 | 0.00 | 0.00 | 30 | 1020.1 |
| 20260505212427 | 52 | 13 | 12.0 | 14.0 | 0.00 | 0.00 | 0.00 | 29 | 1020.0 |
| 20260505211923 | 52 | 11 | 11.0 | 14.0 | 0.00 | 0.00 | 0.00 | 29 | 1020.0 |